CLUSTER II-FM6 (SALSA) (26411 NORAD) Tracking and Keplerian Element Data

This shows tracking and keplerian element data for the satellite.

Feedback or suggestion? Click here.




ElementValue
Catalog26411
NameCLUSTER II-FM6 (SALSA)
Epoch Orbit2808
Epoch Day162.47543184
Epoch Year2024
RAAN25.6727
Inclination148.4555
Eccentricity0.8996882
Argument of Perigee241.0114
Mean Anonmoly359.8186
Mean Motion0.44246723
Decay Rate3.163E-05
L11 26411U 00041B 24162.47543184 .00003163 00000+0 00000+0 0 9991
L22 26411 148.4555 25.6727 8996882 241.0114 359.8186 0.44246723 28080



Live tracking and technical data element details for CLUSTER II-FM6 (SALSA) (NORAD 26411). CLUSTER II-FM6 (SALSA) can be tracked NOW for your location showing map with azimuth and elevation plus other details from your city location.







IsCatalogInMostPopularTable: catalog: 26411, numindb: 395
Update: records affected: 1



GetName: 26411 CLUSTER II-FM6 (SALSA)

Hit Count: updated at: Sat, 24 May 2025 17:22:46 GMT